Regional Weather Roundup
Issued by NWS Wakefield, VA

Home | Current Version | Previous Version | Graphics & Text | Print | Product List | Glossary On
Versions: 1 2 3 4 5 6 7 8 9 10 11 12 13 14 15 16 17 18 19 20 21 22 23 24 25 26 27 28 29 30 31 32 33 34 35 36 37 38 39 40 41 42 43 44 45 46 47 48 49 50
000
ASUS41 KAKQ 061415
RWRAKQ

REGIONAL WEATHER ROUNDUP
NATIONAL WEATHER SERVICE WAKEFIELD VA
900 AM EST TUE DEC 06 2016

Note: "fair" indicates few or no clouds below 12,000 feet with no
significant weather and/or obstructions to visibility. * = Denotes
station may not report precipitation (e.g., rain,snow,etc.),
thunder or fog.

VAZ042-051-052>054-056-061500-
NORTHERN VIRGINIA

CITY           SKY/WX    TMP DP  RH WIND       PRES   REMARKS
WASH NATIONAL  LGT RAIN  44  33  65 NE7       30.10F
DULLES         LGT RAIN  41  34  76 E5        30.09F
FORT BELVOIR   LGT RAIN  41  36  81 CALM      30.09F
QUANTICO       LGT RAIN  43  34  70 E9        30.10F
FREDERICKSBRG* DRIZZLE   41  40  94 NE3       30.06F
STAFFORD*      RAIN      40  38  94 NE5       30.11F
WARRENTON      LGT RAIN  40  35  81 NE5       30.07S
CULPEPER*      LGT RAIN  40  38  94 CALM      30.09S
MANASSAS*      CLOUDY    41  37  87 N3        30.09F
LEESBURG*      LGT RAIN  39  36  87 MISG      30.09F
WINCHESTER     LGT RAIN  36  32  87 CALM      30.07S
FRONT ROYAL*   CLOUDY    36  34  93 E3        30.06S
LURAY*         DRIZZLE   37  37 100 N3        30.03F
$$

VAZ048-049-060>072-079>083-061500-
CENTRAL AND SOUTH CENTRAL VIRGINIA

CITY           SKY/WX    TMP DP  RH WIND       PRES   REMARKS
RICHMOND       LGT RAIN  41  38  89 NE8       30.03F FOG
CHESTERFIELD*  CLOUDY    43  27  52 NE6       30.05S
PETERSBURG*    RAIN      42  40  93 NE9       30.02S
HANOVER        LGT RAIN  41  37  86 VRB5      30.06F FOG
TAPPAHANNOCK*  LGT RAIN  43  41  91 CALM      30.07R
QUINTON*       CLOUDY    41  40  94 NE9       30.02F
CHARLOTTSVILLE CLOUDY    41  35  79 NE8       30.04F
GORDONSVILLE*  CLOUDY    39  37  90 NE6       30.05F
ORANGE*        RAIN      41  37  87 CALM      30.07F
LOUISA*        DRIZZLE   43  41  93 NE6       30.04F
BUMPASS*       CLOUDY    40  38  93 CALM      30.05F
FARMVILLE*     LGT RAIN  43  42  97 NE9       30.00F
CREWE*         CLOUDY    42  42 100 NE6       30.01S
FORT PICKETT*  CLOUDY   N/A N/A N/A NE8       30.00F
CHASE CITY*    CLOUDY    43  41  95 NE7       29.98F
CLARKSVILLE*   CLOUDY    43  43 100 NE3       29.97F
SOUTH HILL*    CLOUDY    42  42  99 NE6       30.03F
LAWRENCEVILLE* CLOUDY    43  42  96 NE5       29.98F
EMPORIA*       RAIN      43  41  93 N5        30.01S
$$

VAZ088>098-061500-
SOUTHEAST VIRGINIA

CITY           SKY/WX    TMP DP  RH WIND       PRES   REMARKS
NORFOLK        LGT RAIN  51  45  79 E14       30.00R
VIRGINIA BEACH LGT RAIN  51  45  79 E13       29.99S
NORFOLK NAVAL  LGT RAIN  51  45  79 E17       30.01S
WEST POINT*    CLOUDY    43  41  93 NE5       30.06F
SALUDA*        CLOUDY    46  43  90 NE6       30.06R
NEWPORT NEWS   RAIN      47  44  90 NE13      30.02S FOG
LANGLEY AFB    LGT RAIN  49  47  93 E15       30.01S
FORT EUSTIS    LGT RAIN  47  44  88 E8        29.98F
WILLIAMSBURG*  PTSUNNY   46  45  93 CALM      30.02F
HR EXEC AP*    CLOUDY    48  45  87 E13       29.98F
FRANKLIN*      RAIN      47  45  93 NE6       29.99S
US460-WAKEFLD  RAIN      45  43  93 NE6       30.00F FOG
$$

VAZ020-022-025-037-045-061500-
WEST CENTRAL AND SOUTHWEST VIRGINIA

CITY           SKY/WX    TMP DP  RH WIND       PRES   REMARKS
STAUNTON*      DRIZZLE   37  34  86 NE7       30.03F
WAYNESBORO*    CLOUDY    37  32  85 CALM      30.00F
HOT SPRINGS VA SNOW      32  32 100 E12G17    29.87R VSB<1/4 WCI  23
LYNCHBURG      RAIN      39  38  96 NE10      30.00F FOG
DANVILLE       LGT RAIN  44  43  96 NE14      29.95F FOG
SOUTH BOSTON*  CLOUDY    44  42  95 NE7       29.98S
MARTINSVILLE   HVY RAIN  41  39  93 E8        29.98F
ROANOKE        HVY RAIN  43  41  93 SE7       30.00R FOG
BLACKSBURG     LGT RAIN  40  39  97 E10       29.95R
DUBLIN*        RAIN      40  40  97 SE7       29.93S
MARION*        LGT RAIN  39  38  94 E15G23    29.87F
HILLSVILLE*    MIX PCPN  36  36 100 CALM      29.89S
RICHLANDS*     RAIN      41  38  91 E9G23     29.76F
WISE*          RAIN      45  45 100 S7G16     29.72F
ABINGDON*      CLOUDY    45  42  89 E22G28    29.76S
$$

MDZ021>025-VAZ099-100-061500-
SOUTHERN MARYLAND AND THE DELMARVA PENINSULA

CITY           SKY/WX    TMP DP  RH WIND       PRES   REMARKS
PATUXENT RIVER LGT RAIN  43  36  76 E9        30.08F
BAY BRIDGE APT CLOUDY    43  32  65 E6        30.11S
LEONARDTOWN    CLOUDY    41  36  81 CALM      30.09S
DOVER          CLOUDY    42  34  74 NE13      30.10R
GEORGETOWN     CLOUDY    45  37  73 NE7       30.10F
EASTON         CLOUDY    43  34  70 CALM      30.13S
CAMBRIDGE      CLOUDY    41  34  75 CALM      30.08F
SALISBURY      LGT RAIN  44  38  79 NE5       30.08F
OCEAN CITY     CLOUDY    49  40  71 E12       30.08F
WALLOPS ISLAND LGT RAIN  48  42  80 E12       30.07F
ACCOMACK*      LGT RAIN  47  43  85 E7        30.04F
$$

NCZ012>017-030>032-061500-
NORTH CENTRAL AND EASTERN NORTH CAROLINA

CITY           SKY/WX    TMP DP  RH WIND       PRES   REMARKS
ROANOKE RAPIDS RAIN      45  45 100 NE5       29.98R
RALEIGH        DRIZZLE   47  44  90 E12G21    29.91F
ELIZABETH CITY LGT RAIN  52  48  86 NE13      29.97F
AHOSKIE*       LGT RAIN  46  44  95 NE6       29.97F
EDENTON*       LGT RAIN  52  49  90 NE7       29.96S
CURRITUCK*     LGT RAIN  53  47  82 NE9       30.00R
KILL DEVIL HLS LGT RAIN  54  53  97 E10G17    29.94F
MANTEO         LGT RAIN  54  51  92 E17G24    29.96F
CAPE HATTERAS  LGT RAIN  61  59  93 E14       29.92S FOG
TARBORO*       NOT AVBL
GOLDSBORO      CLOUDY    48  48 100 NE8       29.89S
WASHINGTON     LGT RAIN  49  48  95 E12       29.93F
GREENVILLE     LGT RAIN  50  50 100 E9        29.94F
NEW BERN       LGT RAIN  52  50  93 NE9       29.91F
WILMINGTON     LGT RAIN  56  56 100 NE14      29.84F FOG
$$

VAZ048-061500-
ELSEWHERE

CITY           SKY/WX    TMP DP  RH WIND       PRES   REMARKS
HARRISBURG PA  CLOUDY    34  32  92 NW3       30.10R
BALTIMORE      CLOUDY    43  32  65 E12       30.10F
ANNAPOLIS      CLOUDY    45  32  60 E6        30.11S
ANDREWS AFB    DRIZZLE   41  32  70 E7        30.07F
PHILADELPHIA   CLOUDY    42  30  62 NE8       30.13F
HENDERSON NC   LGT RAIN  42  40  95 NE8       29.95F
GREENSBORO     LGT RAIN  43  42  97 NE13      29.90F FOG
ROCKY MOUNT    LGT RAIN  47  47 100 NE8       29.93F FOG
$$

VAZ100-061500-
MARINE

STATION/POSITION TIME  TEMP    WIND        PRES    WAVE   SWELL
                       AIR SEA DIR/SP/G            HT/PER HT/PER
                 (UTC) (F)     (DEG/KT/KT) (MB)    (FT/S) (FT/S)
BRANDYWINE LGT   1348   43      70/ 17/ 19   N/A
CAPE MAY NJ      1348   43 48   50/  6/  9 1019.0S
LEWES DE         1348   47 47   80/ 16/ 19 1018.8F
OCEAN-CITY-INLET 1348   49 49  100/  9/ 14 1019.2R
WACHAPREAGUE VA  1348   49 48   70/ 12/ 16 1017.5F
THOMAS POINT MD  1400   43 49   90/  8/  9   N/A
GOOSES REEF MD   1350   43     120/  8/ 10 1019.5F
COVE POINT MD    1348   42      80/  9/ 11 1019.2F
SOLOMONS ISLAND  1348   44 51   70/  9/ 11   N/A
BISHOPS HEAD MD  1348   43 45   50/  6/ 10 1018.5F
PINEY POINT MD   1348           70/  5/  6   N/A
POTOMAC MD       1350   46      80/ 14/ 16 1017.2F
CAMBRIDGE MD     1348   42 47   60/  5/  6 1018.2F
LEWISETTA VA     1348   46 48   90/ 13/ 16 1017.9R
RAPPAHANNOCK LGT 1348           50/  9/ 10 1017.9F
STINGRAY PT      1350   48      80/ 16/ 17 1017.9S
YORK RVR RNG VA  1348   48      60/ 17/ 19 1016.3R
YORKTOWN VA      1348   48 51   50/ 15/ 16 1016.3F
JAMESTOWN VA     1350   45      50/  8/ 12   N/A
DOMINION TERM VA 1348   51      70/ 16/ 21 1016.0S
KIPTOPEKE VA     1348      51   80/  9/ 15   N/A
CHES BAY BRIDGE  1348   52 53   80/ 21/ 26 1015.7S
CAPE HENRY VA    1348   52      70/ 26/ 29   N/A
WILLOUBY STN VA  1348   51      70/ 20/ 23 1016.6R
S CRANEY ISL VA  1348   51      70/ 17/ 19 1015.3S
CAPE HENRY BUOY  1342      56                N/A     5/ 6   2/11
1ST LANDING BUOY 1350   52                 1016.5F
CAPE CHARLES BUO 1356      55                N/A     5/ 5   2/11
OFFSHORE WE BUOY 1351      56                N/A     6/ 6   2/11
64NM E OF VA BCH 1350   57 60   60/ 23/ 27 1014.9F   6/ 8   3/ 8
DUCK PIER NC     1348   54 54   70/ 21/ 29 1013.9F
44100 DUCK FRF   1305      56                N/A     6/ 6   2/11
OREGON INLET NC  1342   56 56   40/ 18/ 23 1013.7F
HATTERAS NC      1348   61 60   90/  9/ 14 1012.7F
DIAMOND SHLS NC  1350   67 76  100/ 21/ 25 1012.8F   6/ 8   3/12
CAPE LOOKOUT NC  1300   60      50/ 19/ 21 1011.8F
$$



USA.gov is the U.S. government's official web portal to all federal, state and local government web resources and services.